#timestamp,LO_Frequency,Hit,StdDev 
1597291855.1,286047002.6,P
1597291856.0,286047002.6,P
1597291875.8,286047001.6,P
1597291895.6,286047002.2,Y
1597291915.5,286047000.3,P
1597291935.3,286047002.3,N
1597291955.1,286047003.9,P
1597291975.9,286047004.4,Y
1597291995.7,286047000.1,P
1597292015.6,286047002.7,N
1597292035.4,286047000.6,N
1597292055.2,286047000.5,N
1597292075.1,286047000.9,N
1597292076.0,286047000.9,N
1597292095.8,286046998.3,N
1597292115.7,286046998.2,N
1597292135.5,286046998.6,N
1597292155.3,286047000.7,N
1597292175.2,286047000.8,N
1597292195.0,286047000.7,N
1597292195.9,286047000.7,N
1597292215.7,286047000.8,N
1597292235.6,286047000.9,N
1597292255.4,286047000.6,N
1597292275.3,286047000.9,N
1597292295.1,286046999.9,N
1597292296.0,286046999.9,N
1597292315.8,286047000.3,N
1597292335.7,286047002.6,N
1597292355.5,286047001.5,N
1597292375.3,286047001.3,N
1597292395.2,286047001.9,N
1597292415.0,286047004.0,Y
1597292415.9,286047004.0,P
1597292435.8,286047002.6,N
1597292455.6,286047000.8,N
1597292475.4,286046999.9,N
1597292495.3,286047000.3,N
1597292515.1,286047001.2,N
1597292535.9,286046998.2,N
1597292555.7,286047000.2,N
1597292575.5,286046999.7,N
1597292595.4,286046999.7,N
1597292615.2,286047002.5,N
1597292635.0,286047002.7,N
1597292635.9,286047002.7,N
1597292655.8,286047001.8,N
1597292675.6,286047002.3,N
1597292695.5,286047001.9,N
1597292715.3,286047001.8,N
1597292735.1,286047002.1,N
1597292755.9,286047002.2,N
1597292775.7,286047001.9,N
1597292795.5,286047001.5,N
1597292815.4,286047002.5,N
1597292835.2,286047001.9,N
1597292855.1,286047002.1,N
1597292856.0,286047002.1,N
1597292875.8,286047001.9,N
1597292895.6,286047001.9,N
1597292915.5,286047001.5,N
1597292935.3,286047003.5,N
1597292955.1,286047005.8,Y
1597292975.9,286047003.7,P
1597292995.7,286047011.9,P
1597293015.6,286047005.5,N
1597293035.4,286047005.1,N
1597293055.2,286047005.4,N
1597293075.1,286047005.4,N
1597293076.0,286047005.4,N
1597293095.8,286047005.8,N
1597293115.6,286047005.8,N
1597293135.5,286047004.8,N
1597293155.3,286047004.6,N
1597293175.2,286047005.0,N
1597293195.9,286047004.9,N
1597293215.7,286047005.4,N
1597293235.6,286047005.7,N
1597293255.4,286047005.8,N
1597293275.2,286047005.6,N
1597293295.1,286047004.7,N
1597293296.0,286047004.7,N
1597293315.8,286047004.9,N
1597293335.7,286047006.9,Y
1597293355.5,286047000.6,P
1597293375.3,286047000.9,N
1597293395.2,286046998.2,N
1597293415.0,286046998.9,N
1597293415.9,286046998.9,N
1597293435.7,286047000.9,N
1597293455.6,286047000.0,N
1597293475.4,286047002.1,N
1597293495.3,286047000.2,N
1597293515.1,286047000.1,N
1597293516.0,286047000.1,N
1597293535.8,286046999.9,N
1597293555.7,286047002.8,N
1597293575.5,286047002.4,N
1597293595.3,286046999.7,N
1597293615.2,286047000.6,N
1597293635.0,286047001.0,N
1597293635.9,286047001.0,N
1597293655.8,286046998.6,N
1597293675.6,286047000.8,N
1597293695.4,286046998.1,N
1597293715.3,286047001.0,N
1597293735.1,286046998.4,N
1597293755.8,286046998.5,N
1597293775.7,286047001.1,N
1597293795.5,286047000.5,N
1597293815.4,286046998.2,N
1597293835.2,286046998.2,N
1597293855.0,286046998.4,N
1597293855.9,286046998.4,N
1597293875.8,286046998.4,N
1597293895.6,286046998.4,N
1597293915.4,286046998.3,N
1597293935.3,286046999.4,N
1597293955.1,286046999.0,N
1597293975.9,286046998.9,N
1597293995.7,286046998.7,N
1597294015.5,286046998.7,N
1597294035.4,286046998.6,N
1597294055.2,286046998.7,N
1597294075.0,286046998.8,N
1597294075.9,286046998.8,N
1597294095.8,286046998.3,N
1597294115.6,286046998.4,N
1597294135.5,286046998.7,N
1597294155.3,286046998.5,N
1597294175.1,286046998.7,N
1597294195.9,286046998.5,N
1597294215.7,286046998.8,N
1597294235.5,286046998.7,N
1597294255.4,286046998.5,N
1597294275.2,286046998.7,N
1597294295.1,286046998.5,N
1597294296.0,286046998.5,N
1597294315.8,286047001.2,N
1597294335.6,286046998.9,N
1597294355.5,286046998.2,Y
1597294375.3,286047000.2,P
1597294395.2,286046999.9,N
1597294415.9,286047000.2,N
1597294435.7,286047000.5,N
1597294455.6,286047000.2,N
1597294475.4,286046999.9,N
1597294495.2,286047000.2,N
1597294515.1,286047000.9,N
1597294516.0,286047000.9,N
1597294535